owner,sensor,date,latitude,longitude,vertical_datum,wind_speed,wind_to_direction,wind_speed_of_gust,qcFlag 
ADCP,ioos:station:wmo:42364:1,2014-03-01T00:30:00Z,29.0600,-88.0900,122.0,3.2,124.0,99.0,'11111222,11111222,11144222' 
ADCP,ioos:station:wmo:42364:1,2014-03-01T01:30:00Z,29.0600,-88.0900,122.0,4.1,120.0,99.0,'11111222,11111222,11144222' 
ADCP,ioos:station:wmo:42364:1,2014-03-01T02:30:00Z,29.0600,-88.0900,122.0,5.5,119.0,99.0,'11111222,11111222,11144222' 
ADCP,ioos:station:wmo:42364:1,2014-03-01T03:30:00Z,29.0600,-88.0900,122.0,5.8,124.0,99.0,'11111222,11111222,11144222' 
ADCP,ioos:station:wmo:42364:1,2014-03-01T04:30:00Z,29.0600,-88.0900,122.0,4.8,123.0,99.0,'11111222,11111222,11144222' 
ADCP,ioos:station:wmo:42364:1,2014-03-01T05:30:00Z,29.0600,-88.0900,122.0,4.8,125.0,99.0,'11111222,11111222,11144222' 
ADCP,ioos:station:wmo:42364:1,2014-03-01T06:30:00Z,29.0600,-88.0900,122.0,6.6,128.0,99.0,'11111222,11111222,11144222' 
ADCP,ioos:station:wmo:42364:1,2014-03-01T07:30:00Z,29.0600,-88.0900,122.0,6.0,134.0,99.0,'11111222,11111222,11144222' 
ADCP,ioos:station:wmo:42364:1,2014-03-01T08:30:00Z,29.0600,-88.0900,122.0,4.6,165.0,99.0,'11111222,11111222,11144222' 
ADCP,ioos:station:wmo:42364:1,2014-03-01T09:30:00Z,29.0600,-88.0900,122.0,4.7,175.0,99.0,'11111222,11111222,11144222' 
ADCP,ioos:station:wmo:42364:1,2014-03-01T10:30:00Z,29.0600,-88.0900,122.0,5.8,164.0,99.0,'11111222,11111222,11144222' 
ADCP,ioos:station:wmo:42364:1,2014-03-01T11:30:00Z,29.0600,-88.0900,122.0,6.5,159.0,99.0,'11111222,11111222,11144222' 
ADCP,ioos:station:wmo:42364:1,2014-03-01T12:30:00Z,29.0600,-88.0900,122.0,7.0,152.0,99.0,'11111222,11111222,11144222' 
ADCP,ioos:station:wmo:42364:1,2014-03-01T13:30:00Z,29.0600,-88.0900,122.0,6.9,145.0,99.0,'11111222,11111222,11144222' 
ADCP,ioos:station:wmo:42364:1,2014-03-01T14:30:00Z,29.0600,-88.0900,122.0,6.8,140.0,99.0,'11111222,11111222,11144222' 
ADCP,ioos:station:wmo:42364:1,2014-03-01T15:30:00Z,29.0600,-88.0900,122.0,6.0,134.0,99.0,'11111222,11111222,11144222' 
ADCP,ioos:station:wmo:42364:1,2014-03-01T16:30:00Z,29.0600,-88.0900,122.0,5.2,130.0,99.0,'11111222,11111222,11144222' 
ADCP,ioos:station:wmo:42364:1,2014-03-01T17:30:00Z,29.0600,-88.0900,122.0,4.8,122.0,99.0,'11111222,11111222,11144222' 
ADCP,ioos:station:wmo:42364:1,2014-03-01T18:30:00Z,29.0600,-88.0900,122.0,4.5,113.0,99.0,'11111222,11111222,11144222' 
ADCP,ioos:station:wmo:42364:1,2014-03-01T19:30:00Z,29.0600,-88.0900,122.0,5.3,110.0,99.0,'11111222,11111222,11144222' 
ADCP,ioos:station:wmo:42364:1,2014-03-01T20:30:00Z,29.0600,-88.0900,122.0,5.5,110.0,99.0,'11111222,11111222,11144222' 
ADCP,ioos:station:wmo:42364:1,2014-03-01T21:30:00Z,29.0600,-88.0900,122.0,5.5,110.0,99.0,'11111222,11111222,11144222' 
ADCP,ioos:station:wmo:42364:1,2014-03-01T22:30:00Z,29.0600,-88.0900,122.0,5.3,110.0,99.0,'11111222,11111222,11144222' 
ADCP,ioos:station:wmo:42364:1,2014-03-01T23:30:00Z,29.0600,-88.0900,122.0,5.0,107.0,99.0,'11111222,11111222,11144222' 
ADCP,ioos:station:wmo:42364:1,2014-03-02T00:30:00Z,29.0600,-88.0900,122.0,5.6,100.0,99.0,'11111222,11111222,11144222' 
ADCP,ioos:station:wmo:42364:1,2014-03-02T01:30:00Z,29.0600,-88.0900,122.0,5.8,101.0,99.0,'11111222,11111222,11144222' 
ADCP,ioos:station:wmo:42364:1,2014-03-02T02:30:00Z,29.0600,-88.0900,122.0,5.4,98.0,99.0,'11111222,11111222,11144222' 
ADCP,ioos:station:wmo:42364:1,2014-03-02T03:30:00Z,29.0600,-88.0900,122.0,6.6,97.0,99.0,'11111222,11111222,11144222' 
ADCP,ioos:station:wmo:42364:1,2014-03-02T04:30:00Z,29.0600,-88.0900,122.0,7.0,98.0,99.0,'11111222,11111222,11144222' 
ADCP,ioos:station:wmo:42364:1,2014-03-02T05:30:00Z,29.0600,-88.0900,122.0,7.4,100.0,99.0,'11111222,11111222,11144222' 
ADCP,ioos:station:wmo:42364:1,2014-03-02T06:30:00Z,29.0600,-88.0900,122.0,8.3,103.0,99.0,'11111222,11111222,11144222' 
ADCP,ioos:station:wmo:42364:1,2014-03-02T07:30:00Z,29.0600,-88.0900,122.0,8.0,104.0,99.0,'11111222,11111222,11144222' 
ADCP,ioos:station:wmo:42364:1,2014-03-02T08:30:00Z,29.0600,-88.0900,122.0,8.2,102.0,99.0,'11111222,11111222,11144222' 
ADCP,ioos:station:wmo:42364:1,2014-03-02T09:30:00Z,29.0600,-88.0900,122.0,8.0,110.0,99.0,'11111222,11111222,11144222' 
ADCP,ioos:station:wmo:42364:1,2014-03-02T10:30:00Z,29.0600,-88.0900,122.0,7.5,111.0,99.0,'11111222,11111222,11144222' 
ADCP,ioos:station:wmo:42364:1,2014-03-02T11:30:00Z,29.0600,-88.0900,122.0,7.7,115.0,99.0,'11111222,11111222,11144222' 
ADCP,ioos:station:wmo:42364:1,2014-03-02T12:30:00Z,29.0600,-88.0900,122.0,7.8,120.0,99.0,'11111222,11111222,11144222' 
ADCP,ioos:station:wmo:42364:1,2014-03-02T13:30:00Z,29.0600,-88.0900,122.0,8.1,120.0,99.0,'11111222,11111222,11144222' 
ADCP,ioos:station:wmo:42364:1,2014-03-02T14:30:00Z,29.0600,-88.0900,122.0,7.2,120.0,99.0,'11111222,11111222,11144222' 
ADCP,ioos:station:wmo:42364:1,2014-03-02T15:30:00Z,29.0600,-88.0900,122.0,7.2,120.0,99.0,'11111222,11111222,11144222' 
ADCP,ioos:station:wmo:42364:1,2014-03-02T16:30:00Z,29.0600,-88.0900,122.0,7.0,120.0,99.0,'11111222,11111222,11144222' 
ADCP,ioos:station:wmo:42364:1,2014-03-02T17:30:00Z,29.0600,-88.0900,122.0,6.3,119.0,99.0,'11111222,11111222,11144222' 
ADCP,ioos:station:wmo:42364:1,2014-03-02T18:30:00Z,29.0600,-88.0900,122.0,5.9,118.0,99.0,'11111222,11111222,11144222' 
ADCP,ioos:station:wmo:42364:1,2014-03-02T19:30:00Z,29.0600,-88.0900,122.0,5.1,120.0,99.0,'11111222,11111222,11144222' 
ADCP,ioos:station:wmo:42364:1,2014-03-02T20:30:00Z,29.0600,-88.0900,122.0,5.0,120.0,99.0,'11111222,11111222,11144222' 
ADCP,ioos:station:wmo:42364:1,2014-03-02T21:30:00Z,29.0600,-88.0900,122.0,4.9,111.0,99.0,'11111222,11111222,11144222' 
ADCP,ioos:station:wmo:42364:1,2014-03-02T22:30:00Z,29.0600,-88.0900,122.0,5.3,108.0,99.0,'11111222,11111222,11144222' 
ADCP,ioos:station:wmo:42364:1,2014-03-02T23:30:00Z,29.0600,-88.0900,122.0,5.7,110.0,99.0,'11111222,11111222,11144222' 
ADCP,ioos:station:wmo:42364:1,2014-03-03T00:30:00Z,29.0600,-88.0900,122.0,6.2,111.0,99.0,'11111222,11111222,11144222' 
ADCP,ioos:station:wmo:42364:1,2014-03-03T01:30:00Z,29.0600,-88.0900,122.0,6.3,110.0,99.0,'11111222,11111222,11144222' 
ADCP,ioos:station:wmo:42364:1,2014-03-03T02:30:00Z,29.0600,-88.0900,122.0,6.3,109.0,99.0,'11111222,11111222,11144222' 
ADCP,ioos:station:wmo:42364:1,2014-03-03T03:30:00Z,29.0600,-88.0900,122.0,6.0,111.0,99.0,'11111222,11111222,11144222' 
ADCP,ioos:station:wmo:42364:1,2014-03-03T04:30:00Z,29.0600,-88.0900,122.0,7.5,120.0,99.0,'11111222,11111222,11144222' 
ADCP,ioos:station:wmo:42364:1,2014-03-03T05:30:00Z,29.0600,-88.0900,122.0,7.8,127.0,99.0,'11111222,11111222,11144222' 
ADCP,ioos:station:wmo:42364:1,2014-03-03T06:30:00Z,29.0600,-88.0900,122.0,8.5,142.0,99.0,'11111222,11111222,11144222' 
ADCP,ioos:station:wmo:42364:1,2014-03-03T07:30:00Z,29.0600,-88.0900,122.0,8.1,162.0,99.0,'11111222,11111222,11144222' 
ADCP,ioos:station:wmo:42364:1,2014-03-03T08:30:00Z,29.0600,-88.0900,122.0,8.1,174.0,99.0,'11111222,11111222,11144222' 
ADCP,ioos:station:wmo:42364:1,2014-03-03T09:30:00Z,29.0600,-88.0900,122.0,9.4,173.0,99.0,'11111222,11111222,11144222' 
ADCP,ioos:station:wmo:42364:1,2014-03-03T10:30:00Z,29.0600,-88.0900,122.0,8.9,185.0,99.0,'11111222,11111222,11144222' 
ADCP,ioos:station:wmo:42364:1,2014-03-03T11:30:00Z,29.0600,-88.0900,122.0,8.2,190.0,99.0,'11111222,11111222,11144222' 
ADCP,ioos:station:wmo:42364:1,2014-03-03T12:30:00Z,29.0600,-88.0900,122.0,3.7,211.0,99.0,'11111222,11111222,11144222' 
ADCP,ioos:station:wmo:42364:1,2014-03-03T13:30:00Z,29.0600,-88.0900,122.0,3.8,197.0,99.0,'11111222,11111222,11144222' 
ADCP,ioos:station:wmo:42364:1,2014-03-03T14:30:00Z,29.0600,-88.0900,122.0,6.7,190.0,99.0,'11111222,11111222,11144222' 
ADCP,ioos:station:wmo:42364:1,2014-03-03T15:30:00Z,29.0600,-88.0900,122.0,3.2,204.0,99.0,'11111222,11111222,11144222' 
ADCP,ioos:station:wmo:42364:1,2014-03-03T16:30:00Z,29.0600,-88.0900,122.0,7.0,229.0,99.0,'11111222,11111222,11144222' 
ADCP,ioos:station:wmo:42364:1,2014-03-03T17:30:00Z,29.0600,-88.0900,122.0,13.8,291.0,99.0,'11111222,11111222,11144222' 
ADCP,ioos:station:wmo:42364:1,2014-03-03T18:30:00Z,29.0600,-88.0900,122.0,13.0,303.0,99.0,'11111222,11111222,11144222' 
ADCP,ioos:station:wmo:42364:1,2014-03-03T19:30:00Z,29.0600,-88.0900,122.0,11.9,310.0,99.0,'11111222,11111222,11144222' 
ADCP,ioos:station:wmo:42364:1,2014-03-03T20:30:00Z,29.0600,-88.0900,122.0,10.9,315.0,99.0,'11111222,11111222,11144222' 
ADCP,ioos:station:wmo:42364:1,2014-03-03T21:30:00Z,29.0600,-88.0900,122.0,9.9,320.0,99.0,'11111222,11111222,11144222' 
ADCP,ioos:station:wmo:42364:1,2014-03-03T22:30:00Z,29.0600,-88.0900,122.0,9.8,323.0,99.0,'11111222,11111222,11144222' 
ADCP,ioos:station:wmo:42364:1,2014-03-03T23:30:00Z,29.0600,-88.0900,122.0,9.7,328.0,99.0,'11111222,11111222,11144222' 
ADCP,ioos:station:wmo:42364:1,2014-03-04T00:30:00Z,29.0600,-88.0900,122.0,9.5,331.0,99.0,'11111222,11111222,11144222' 
ADCP,ioos:station:wmo:42364:1,2014-03-04T01:30:00Z,29.0600,-88.0900,122.0,9.8,339.0,99.0,'11111222,11111222,11144222' 
ADCP,ioos:station:wmo:42364:1,2014-03-04T02:30:00Z,29.0600,-88.0900,122.0,10.0,338.0,99.0,'11111222,11111222,11144222' 
ADCP,ioos:station:wmo:42364:1,2014-03-04T03:30:00Z,29.0600,-88.0900,122.0,9.9,342.0,99.0,'11111222,11111222,11144222' 
ADCP,ioos:station:wmo:42364:1,2014-03-04T04:30:00Z,29.0600,-88.0900,122.0,9.4,345.0,99.0,'11111222,11111222,11144222' 
ADCP,ioos:station:wmo:42364:1,2014-03-04T05:30:00Z,29.0600,-88.0900,122.0,8.0,347.0,99.0,'11111222,11111222,11144222' 
ADCP,ioos:station:wmo:42364:1,2014-03-04T06:30:00Z,29.0600,-88.0900,122.0,7.6,353.0,99.0,'11111222,11111222,11144222' 
ADCP,ioos:station:wmo:42364:1,2014-03-04T07:30:00Z,29.0600,-88.0900,122.0,7.7,357.0,99.0,'11111222,11111222,11144222' 
ADCP,ioos:station:wmo:42364:1,2014-03-04T08:30:00Z,29.0600,-88.0900,122.0,6.4,1.0,99.0,'11111222,11111222,11144222' 
ADCP,ioos:station:wmo:42364:1,2014-03-04T09:30:00Z,29.0600,-88.0900,122.0,5.4,358.0,99.0,'11111222,11111222,11144222' 
ADCP,ioos:station:wmo:42364:1,2014-03-04T10:30:00Z,29.0600,-88.0900,122.0,5.7,353.0,99.0,'11111222,11111222,11144222' 
ADCP,ioos:station:wmo:42364:1,2014-03-04T11:30:00Z,29.0600,-88.0900,122.0,6.1,6.0,99.0,'11111222,11111222,11144222' 
ADCP,ioos:station:wmo:42364:1,2014-03-04T12:30:00Z,29.0600,-88.0900,122.0,4.6,351.0,99.0,'11111222,11111222,11144222' 
ADCP,ioos:station:wmo:42364:1,2014-03-04T13:30:00Z,29.0600,-88.0900,122.0,4.9,13.0,99.0,'11111222,11111222,11144222' 
ADCP,ioos:station:wmo:42364:1,2014-03-04T14:30:00Z,29.0600,-88.0900,122.0,4.8,8.0,99.0,'11111222,11111222,11144222' 
ADCP,ioos:station:wmo:42364:1,2014-03-04T15:30:00Z,29.0600,-88.0900,122.0,3.9,11.0,99.0,'11111222,11111222,11144222' 
ADCP,ioos:station:wmo:42364:1,2014-03-04T16:30:00Z,29.0600,-88.0900,122.0,4.0,355.0,99.0,'11111222,11111222,11144222' 
ADCP,ioos:station:wmo:42364:1,2014-03-04T17:30:00Z,29.0600,-88.0900,122.0,6.2,341.0,99.0,'11111222,11111222,11144222' 
ADCP,ioos:station:wmo:42364:1,2014-03-04T18:30:00Z,29.0600,-88.0900,122.0,6.7,352.0,99.0,'11111222,11111222,11144222' 
ADCP,ioos:station:wmo:42364:1,2014-03-04T19:30:00Z,29.0600,-88.0900,122.0,6.1,6.0,99.0,'11111222,11111222,11144222' 
ADCP,ioos:station:wmo:42364:1,2014-03-04T20:30:00Z,29.0600,-88.0900,122.0,6.6,2.0,99.0,'11111222,11111222,11144222' 
ADCP,ioos:station:wmo:42364:1,2014-03-04T21:30:00Z,29.0600,-88.0900,122.0,7.8,352.0,99.0,'11111222,11111222,11144222' 
ADCP,ioos:station:wmo:42364:1,2014-03-04T22:30:00Z,29.0600,-88.0900,122.0,7.7,5.0,99.0,'11111222,11111222,11144222' 
ADCP,ioos:station:wmo:42364:1,2014-03-04T23:30:00Z,29.0600,-88.0900,122.0,8.3,28.0,99.0,'11111222,11111222,11144222' 
ADCP,ioos:station:wmo:42364:1,2014-03-05T00:30:00Z,29.0600,-88.0900,122.0,7.3,35.0,99.0,'11111222,11111222,11144222' 
ADCP,ioos:station:wmo:42364:1,2014-03-05T01:30:00Z,29.0600,-88.0900,122.0,6.7,33.0,99.0,'11111222,11111222,11144222' 
ADCP,ioos:station:wmo:42364:1,2014-03-05T02:30:00Z,29.0600,-88.0900,122.0,6.2,18.0,99.0,'11111222,11111222,11144222' 
ADCP,ioos:station:wmo:42364:1,2014-03-05T03:30:00Z,29.0600,-88.0900,122.0,7.6,24.0,99.0,'11111222,11111222,11144222' 
ADCP,ioos:station:wmo:42364:1,2014-03-05T04:30:00Z,29.0600,-88.0900,122.0,14.2,151.0,99.0,'11111222,11111222,11144222' 
ADCP,ioos:station:wmo:42364:1,2014-03-05T05:30:00Z,29.0600,-88.0900,122.0,5.7,50.0,99.0,'11111222,11111222,11144222' 
ADCP,ioos:station:wmo:42364:1,2014-03-05T06:30:00Z,29.0600,-88.0900,122.0,5.1,59.0,99.0,'11111222,11111222,11144222' 
ADCP,ioos:station:wmo:42364:1,2014-03-05T07:30:00Z,29.0600,-88.0900,122.0,5.1,76.0,99.0,'11111222,11111222,11144222' 
ADCP,ioos:station:wmo:42364:1,2014-03-05T08:30:00Z,29.0600,-88.0900,122.0,99.0,299.0,99.0,'11144222,11111222,11144222' 
ADCP,ioos:station:wmo:42364:1,2014-03-05T09:30:00Z,29.0600,-88.0900,122.0,99.0,115.0,99.0,'11144222,11111222,11144222' 
ADCP,ioos:station:wmo:42364:1,2014-03-05T10:30:00Z,29.0600,-88.0900,122.0,7.3,91.0,99.0,'11111222,11111222,11144222' 
ADCP,ioos:station:wmo:42364:1,2014-03-05T11:30:00Z,29.0600,-88.0900,122.0,6.9,95.0,99.0,'11111222,11111222,11144222' 
ADCP,ioos:station:wmo:42364:1,2014-03-05T12:30:00Z,29.0600,-88.0900,122.0,2.6,67.0,99.0,'11111222,11111222,11144222' 
ADCP,ioos:station:wmo:42364:1,2014-03-05T13:30:00Z,29.0600,-88.0900,122.0,4.6,31.0,99.0,'11111222,11111222,11144222' 
ADCP,ioos:station:wmo:42364:1,2014-03-05T14:30:00Z,29.0600,-88.0900,122.0,7.3,22.0,99.0,'11111222,11111222,11144222' 
ADCP,ioos:station:wmo:42364:1,2014-03-05T15:30:00Z,29.0600,-88.0900,122.0,9.2,24.0,99.0,'11111222,11111222,11144222' 
ADCP,ioos:station:wmo:42364:1,2014-03-05T16:30:00Z,29.0600,-88.0900,122.0,9.6,40.0,99.0,'11111222,11111222,11144222' 
ADCP,ioos:station:wmo:42364:1,2014-03-05T17:30:00Z,29.0600,-88.0900,122.0,9.7,47.0,99.0,'11111222,11111222,11144222' 
ADCP,ioos:station:wmo:42364:1,2014-03-05T18:30:00Z,29.0600,-88.0900,122.0,8.9,51.0,99.0,'11111222,11111222,11144222' 
ADCP,ioos:station:wmo:42364:1,2014-03-05T19:30:00Z,29.0600,-88.0900,122.0,9.3,56.0,99.0,'11111222,11111222,11144222' 
ADCP,ioos:station:wmo:42364:1,2014-03-05T20:30:00Z,29.0600,-88.0900,122.0,9.2,53.0,99.0,'11111222,11111222,11144222' 
ADCP,ioos:station:wmo:42364:1,2014-03-05T21:30:00Z,29.0600,-88.0900,122.0,9.5,53.0,99.0,'11111222,11111222,11144222' 
ADCP,ioos:station:wmo:42364:1,2014-03-05T22:30:00Z,29.0600,-88.0900,122.0,9.6,57.0,99.0,'11111222,11111222,11144222' 
ADCP,ioos:station:wmo:42364:1,2014-03-05T23:30:00Z,29.0600,-88.0900,122.0,9.6,60.0,99.0,'11111222,11111222,11144222' 
ADCP,ioos:station:wmo:42364:1,2014-03-06T00:30:00Z,29.0600,-88.0900,122.0,9.4,56.0,99.0,'11111222,11111222,11144222' 
ADCP,ioos:station:wmo:42364:1,2014-03-06T01:30:00Z,29.0600,-88.0900,122.0,9.3,46.0,99.0,'11111222,11111222,11144222' 
ADCP,ioos:station:wmo:42364:1,2014-03-06T02:30:00Z,29.0600,-88.0900,122.0,11.5,81.0,99.0,'11111222,11111222,11144222' 
ADCP,ioos:station:wmo:42364:1,2014-03-06T03:30:00Z,29.0600,-88.0900,122.0,99.0,76.0,99.0,'11144222,11111222,11144222' 
ADCP,ioos:station:wmo:42364:1,2014-03-06T04:30:00Z,29.0600,-88.0900,122.0,10.2,72.0,99.0,'11111222,11111222,11144222' 
ADCP,ioos:station:wmo:42364:1,2014-03-06T05:30:00Z,29.0600,-88.0900,122.0,9.8,78.0,99.0,'11111222,11111222,11144222' 
ADCP,ioos:station:wmo:42364:1,2014-03-06T06:30:00Z,29.0600,-88.0900,122.0,9.9,56.0,99.0,'11111222,11111222,11144222' 
ADCP,ioos:station:wmo:42364:1,2014-03-06T07:30:00Z,29.0600,-88.0900,122.0,23.3,169.0,99.0,'11111222,11111222,11144222' 
ADCP,ioos:station:wmo:42364:1,2014-03-06T09:30:00Z,29.0600,-88.0900,122.0,99.0,344.0,99.0,'11144222,11111222,11144222' 
ADCP,ioos:station:wmo:42364:1,2014-03-06T10:30:00Z,29.0600,-88.0900,122.0,99.0,87.0,99.0,'11144222,11111222,11144222' 
ADCP,ioos:station:wmo:42364:1,2014-03-06T11:30:00Z,29.0600,-88.0900,122.0,10.1,65.0,99.0,'11111222,11111222,11144222' 
ADCP,ioos:station:wmo:42364:1,2014-03-06T12:30:00Z,29.0600,-88.0900,122.0,10.5,70.0,99.0,'11111222,11111222,11144222' 
ADCP,ioos:station:wmo:42364:1,2014-03-06T13:30:00Z,29.0600,-88.0900,122.0,8.3,78.0,99.0,'11111222,11111222,11144222' 
ADCP,ioos:station:wmo:42364:1,2014-03-06T14:30:00Z,29.0600,-88.0900,122.0,2.3,40.0,99.0,'11111222,11111222,11144222' 
ADCP,ioos:station:wmo:42364:1,2014-03-06T16:30:00Z,29.0600,-88.0900,122.0,4.0,325.0,99.0,'11111222,11111222,11144222' 
ADCP,ioos:station:wmo:42364:1,2014-03-06T17:30:00Z,29.0600,-88.0900,122.0,6.0,330.0,99.0,'11111222,11111222,11144222' 
ADCP,ioos:station:wmo:42364:1,2014-03-06T18:30:00Z,29.0600,-88.0900,122.0,5.5,337.0,99.0,'11111222,11111222,11144222' 
ADCP,ioos:station:wmo:42364:1,2014-03-06T19:30:00Z,29.0600,-88.0900,122.0,5.5,329.0,99.0,'11111222,11111222,11144222' 
ADCP,ioos:station:wmo:42364:1,2014-03-06T20:30:00Z,29.0600,-88.0900,122.0,6.8,313.0,99.0,'11111222,11111222,11144222' 
ADCP,ioos:station:wmo:42364:1,2014-03-06T21:30:00Z,29.0600,-88.0900,122.0,10.2,286.0,99.0,'11111222,11111222,11144222' 
ADCP,ioos:station:wmo:42364:1,2014-03-06T22:30:00Z,29.0600,-88.0900,122.0,10.7,286.0,99.0,'11111222,11111222,11144222' 
ADCP,ioos:station:wmo:42364:1,2014-03-06T23:30:00Z,29.0600,-88.0900,122.0,9.6,285.0,99.0,'11111222,11111222,11144222' 
ADCP,ioos:station:wmo:42364:1,2014-03-07T00:30:00Z,29.0600,-88.0900,122.0,12.3,277.0,99.0,'11111222,11111222,11144222' 
ADCP,ioos:station:wmo:42364:1,2014-03-07T01:30:00Z,29.0600,-88.0900,122.0,13.7,294.0,99.0,'11111222,11111222,11144222' 
ADCP,ioos:station:wmo:42364:1,2014-03-07T02:30:00Z,29.0600,-88.0900,122.0,11.6,319.0,99.0,'11111222,11111222,11144222' 
ADCP,ioos:station:wmo:42364:1,2014-03-07T03:30:00Z,29.0600,-88.0900,122.0,10.3,316.0,99.0,'11111222,11111222,11144222' 
ADCP,ioos:station:wmo:42364:1,2014-03-07T05:30:00Z,29.0600,-88.0900,122.0,9.8,317.0,99.0,'11111222,11111222,11144222' 
ADCP,ioos:station:wmo:42364:1,2014-03-07T06:30:00Z,29.0600,-88.0900,122.0,10.2,310.0,99.0,'11111222,11111222,11144222' 
ADCP,ioos:station:wmo:42364:1,2014-03-07T07:30:00Z,29.0600,-88.0900,122.0,9.8,318.0,99.0,'11111222,11111222,11144222' 
ADCP,ioos:station:wmo:42364:1,2014-03-07T08:30:00Z,29.0600,-88.0900,122.0,10.8,319.0,99.0,'11111222,11111222,11144222' 
ADCP,ioos:station:wmo:42364:1,2014-03-07T09:30:00Z,29.0600,-88.0900,122.0,9.5,316.0,99.0,'11111222,11111222,11144222' 
ADCP,ioos:station:wmo:42364:1,2014-03-07T11:30:00Z,29.0600,-88.0900,122.0,10.4,309.0,99.0,'11111222,11111222,11144222' 
ADCP,ioos:station:wmo:42364:1,2014-03-07T12:30:00Z,29.0600,-88.0900,122.0,10.7,311.0,99.0,'11111222,11111222,11144222' 
ADCP,ioos:station:wmo:42364:1,2014-03-07T13:30:00Z,29.0600,-88.0900,122.0,8.8,325.0,99.0,'11111222,11111222,11144222' 
ADCP,ioos:station:wmo:42364:1,2014-03-07T14:30:00Z,29.0600,-88.0900,122.0,8.8,331.0,99.0,'11111222,11111222,11144222' 
ADCP,ioos:station:wmo:42364:1,2014-03-07T15:30:00Z,29.0600,-88.0900,122.0,8.0,328.0,99.0,'11111222,11111222,11144222' 
ADCP,ioos:station:wmo:42364:1,2014-03-07T17:30:00Z,29.0600,-88.0900,122.0,6.6,318.0,99.0,'11111222,11111222,11144222' 
ADCP,ioos:station:wmo:42364:1,2014-03-07T18:30:00Z,29.0600,-88.0900,122.0,6.2,322.0,99.0,'11111222,11111222,11144222' 
ADCP,ioos:station:wmo:42364:1,2014-03-07T19:30:00Z,29.0600,-88.0900,122.0,6.3,319.0,99.0,'11111222,11111222,11144222' 
ADCP,ioos:station:wmo:42364:1,2014-03-07T20:30:00Z,29.0600,-88.0900,122.0,6.0,326.0,99.0,'11111222,11111222,11144222' 
ADCP,ioos:station:wmo:42364:1,2014-03-07T21:30:00Z,29.0600,-88.0900,122.0,5.4,325.0,99.0,'11111222,11111222,11144222' 
ADCP,ioos:station:wmo:42364:1,2014-03-07T22:30:00Z,29.0600,-88.0900,122.0,5.2,323.0,99.0,'11111222,11111222,11144222' 
ADCP,ioos:station:wmo:42364:1,2014-03-07T23:30:00Z,29.0600,-88.0900,122.0,5.1,335.0,99.0,'11111222,11111222,11144222' 
ADCP,ioos:station:wmo:42364:1,2014-03-08T00:30:00Z,29.0600,-88.0900,122.0,5.0,350.0,99.0,'11111222,11111222,11144222' 
ADCP,ioos:station:wmo:42364:1,2014-03-08T01:30:00Z,29.0600,-88.0900,122.0,4.6,27.0,99.0,'11111222,11111222,11144222' 
ADCP,ioos:station:wmo:42364:1,2014-03-08T02:30:00Z,29.0600,-88.0900,122.0,4.4,49.0,99.0,'11111222,11111222,11144222' 
ADCP,ioos:station:wmo:42364:1,2014-03-08T03:30:00Z,29.0600,-88.0900,122.0,5.4,58.0,99.0,'11111222,11111222,11144222' 
ADCP,ioos:station:wmo:42364:1,2014-03-08T04:30:00Z,29.0600,-88.0900,122.0,5.8,68.0,99.0,'11111222,11111222,11144222' 
ADCP,ioos:station:wmo:42364:1,2014-03-08T05:30:00Z,29.0600,-88.0900,122.0,5.9,72.0,99.0,'11111222,11111222,11144222' 
ADCP,ioos:station:wmo:42364:1,2014-03-08T06:30:00Z,29.0600,-88.0900,122.0,6.7,84.0,99.0,'11111222,11111222,11144222' 
ADCP,ioos:station:wmo:42364:1,2014-03-08T07:30:00Z,29.0600,-88.0900,122.0,7.7,92.0,99.0,'11111222,11111222,11144222' 
ADCP,ioos:station:wmo:42364:1,2014-03-08T09:30:00Z,29.0600,-88.0900,122.0,8.1,102.0,99.0,'11111222,11111222,11144222' 
ADCP,ioos:station:wmo:42364:1,2014-03-08T10:30:00Z,29.0600,-88.0900,122.0,7.6,101.0,99.0,'11111222,11111222,11144222' 
ADCP,ioos:station:wmo:42364:1,2014-03-08T11:30:00Z,29.0600,-88.0900,122.0,6.9,92.0,99.0,'11111222,11111222,11144222' 
ADCP,ioos:station:wmo:42364:1,2014-03-08T12:30:00Z,29.0600,-88.0900,122.0,6.6,88.0,99.0,'11111222,11111222,11144222' 
ADCP,ioos:station:wmo:42364:1,2014-03-08T13:30:00Z,29.0600,-88.0900,122.0,7.2,89.0,99.0,'11111222,11111222,11144222' 
ADCP,ioos:station:wmo:42364:1,2014-03-08T14:30:00Z,29.0600,-88.0900,122.0,7.2,100.0,99.0,'11111222,11111222,11144222' 
ADCP,ioos:station:wmo:42364:1,2014-03-08T15:30:00Z,29.0600,-88.0900,122.0,8.3,106.0,99.0,'11111222,11111222,11144222' 
ADCP,ioos:station:wmo:42364:1,2014-03-08T16:30:00Z,29.0600,-88.0900,122.0,9.1,108.0,99.0,'11111222,11111222,11144222' 
ADCP,ioos:station:wmo:42364:1,2014-03-08T17:30:00Z,29.0600,-88.0900,122.0,7.6,121.0,99.0,'11111222,11111222,11144222' 
ADCP,ioos:station:wmo:42364:1,2014-03-08T18:30:00Z,29.0600,-88.0900,122.0,4.3,130.0,99.0,'11111222,11111222,11144222' 
ADCP,ioos:station:wmo:42364:1,2014-03-08T19:30:00Z,29.0600,-88.0900,122.0,2.6,112.0,99.0,'11111222,11111222,11144222' 
ADCP,ioos:station:wmo:42364:1,2014-03-08T20:30:00Z,29.0600,-88.0900,122.0,2.3,102.0,99.0,'11111222,11111222,11144222' 
ADCP,ioos:station:wmo:42364:1,2014-03-08T21:30:00Z,29.0600,-88.0900,122.0,2.3,99.0,99.0,'11111222,11111222,11144222' 
ADCP,ioos:station:wmo:42364:1,2014-03-08T22:30:00Z,29.0600,-88.0900,122.0,5.2,79.0,99.0,'11111222,11111222,11144222' 
ADCP,ioos:station:wmo:42364:1,2014-03-08T23:30:00Z,29.0600,-88.0900,122.0,4.6,78.0,99.0,'11111222,11111222,11144222' 
ADCP,ioos:station:wmo:42364:1,2014-03-09T00:30:00Z,29.0600,-88.0900,122.0,5.7,80.0,99.0,'11111222,11111222,11144222' 
ADCP,ioos:station:wmo:42364:1,2014-03-09T01:30:00Z,29.0600,-88.0900,122.0,6.3,81.0,99.0,'11111222,11111222,11144222' 
ADCP,ioos:station:wmo:42364:1,2014-03-09T02:30:00Z,29.0600,-88.0900,122.0,5.7,81.0,99.0,'11111222,11111222,11144222' 
ADCP,ioos:station:wmo:42364:1,2014-03-09T03:30:00Z,29.0600,-88.0900,122.0,5.8,81.0,99.0,'11111222,11111222,11144222' 
ADCP,ioos:station:wmo:42364:1,2014-03-09T04:30:00Z,29.0600,-88.0900,122.0,5.5,78.0,99.0,'11111222,11111222,11144222' 
ADCP,ioos:station:wmo:42364:1,2014-03-09T05:30:00Z,29.0600,-88.0900,122.0,5.3,80.0,99.0,'11111222,11111222,11144222' 
ADCP,ioos:station:wmo:42364:1,2014-03-09T06:30:00Z,29.0600,-88.0900,122.0,5.3,74.0,99.0,'11111222,11111222,11144222' 
ADCP,ioos:station:wmo:42364:1,2014-03-09T07:30:00Z,29.0600,-88.0900,122.0,5.1,65.0,99.0,'11111222,11111222,11144222' 
ADCP,ioos:station:wmo:42364:1,2014-03-09T08:30:00Z,29.0600,-88.0900,122.0,5.0,67.0,99.0,'11111222,11111222,11144222' 
ADCP,ioos:station:wmo:42364:1,2014-03-09T09:30:00Z,29.0600,-88.0900,122.0,5.2,69.0,99.0,'11111222,11111222,11144222' 
ADCP,ioos:station:wmo:42364:1,2014-03-09T10:30:00Z,29.0600,-88.0900,122.0,4.9,73.0,99.0,'11111222,11111222,11144222' 
ADCP,ioos:station:wmo:42364:1,2014-03-09T11:30:00Z,29.0600,-88.0900,122.0,4.5,52.0,99.0,'11111222,11111222,11144222' 
ADCP,ioos:station:wmo:42364:1,2014-03-09T12:30:00Z,29.0600,-88.0900,122.0,6.0,45.0,99.0,'11111222,11111222,11144222' 
ADCP,ioos:station:wmo:42364:1,2014-03-09T13:30:00Z,29.0600,-88.0900,122.0,4.7,41.0,99.0,'11111222,11111222,11144222' 
ADCP,ioos:station:wmo:42364:1,2014-03-09T14:30:00Z,29.0600,-88.0900,122.0,1.8,65.0,99.0,'11111222,11111222,11144222' 